Wind_Speed
22 20 18 17 16 16 15 15 16 15 12 12 14 16 18 19 20 18 4 16 8 2 6 4 2 1 4 1 2 4 4 5 4 5 3 3 2 2 3 2 1 2 2 1 1 1 5 3 4 4 4 4 3 5
25 23 22 20 19 18 16 15 15 15 13 11 11 13 14 16 18 16 5 12 15 5 6 9 23 29 17 16 4 2 5 3 2 3 2 1 2 3 2 1 3 1 4 3 5 5 3 4 4 3 5 4 4 5
28 26 24 23 21 20 18 16 15 14 14 12 10 11 12 13 15 16 12 14 12 3 6 3 2 10 9 18 18 3 3 3 2 4 3 2 1 2 1 3 1 1 2 2 3 3 4 7 2 5 7 10 5 5
29 27 25 24 22 20 19 18 17 15 13 13 10 9 11 11 12 15 13 6 5 3 2 6 13 9 10 14 16 24 11 1 2 3 2 2 1 2 3 4 4 4 4 3 5 7 5 4 3 9 9 8 7 12
24 26 25 23 21 20 19 19 19 17 15 12 11 10 9 10 12 15 8 1 3 2 2 5 25 9 14 10 15 7 7 3 1 1 1 2 2 1 2 1 3 5 7 4 5 5 3 5 5 9 9 6 5 1
23 22 21 21 20 19 19 19 19 17 16 13 9 9 10 10 11 7 3 2 2 3 1 4 7 7 13 7 14 6 5 3 3 4 3 3 4 2 2 2 5 4 5 8 5 8 7 7 7 10 13 14 12 9
23 22 20 20 20 18 17 15 15 15 14 12 8 6 8 9 9 3 4 3 1 3 1 4 5 5 6 6 3 2 3 3 4 3 3 4 4 4 3 6 7 7 9 7 5 4 5 2 4 6 12 13 15 21
22 22 21 20 19 17 16 14 14 12 10 9 7 4 7 8 11 8 4 6 11 3 1 2 4 5 3 2 1 2 2 2 2 3 2 3 2 1 4 7 9 9 9 7 8 7 5 2 6 3 7 6 3 7
21 19 19 20 19 17 15 14 12 11 9 7 4 2 4 3 2 1 1 3 11 2 2 2 3 4 6 3 2 3 3 0 2 2 3 3 2 4 7 7 6 6 8 7 8 8 7 2 7 4 6 7 6 7
19 18 19 18 16 14 14 13 13 12 10 8 4 1 2 4 4 2 1 1 0 1 2 3 2 4 3 3 3 2 1 2 1 4 2 3 4 9 8 9 8 7 8 8 8 4 4 5 3 5 4 4 5 5
18 18 17 16 14 13 14 14 17 17 14 6 4 3 3 5 2 2 2 3 3 3 4 4 6 3 2 3 3 2 2 2 1 5 5 3 4 6 7 11 8 9 8 9 7 7 8 5 3 4 6 7 8 7
17 17 16 16 16 14 14 18 23 19 10 12 4 1 3 2 0 2 3 3 4 4 4 4 5 5 4 3 2 2 2 2 5 3 1 2 4 7 4 6 7 8 8 7 12 9 8 8 9 7 7 8 13 18
16 16 15 15 16 17 18 23 29 19 11 6 3 3 4 3 4 6 7 4 3 3 4 4 2 4 2 2 1 2 1 5 2 2 3 3 4 7 7 5 7 8 11 9 8 14 15 12 13 10 6 10 14 16
17 15 16 15 16 17 19 24 28 22 4 3 5 4 5 5 5 6 4 3 5 2 3 4 4 3 2 2 3 3 4 1 3 2 1 2 4 6 6 4 5 5 8 9 8 12 11 10 8 12 8 11 13 14
17 17 16 16 16 17 17 20 26 15 6 4 4 6 7 6 3 3 4 4 6 4 3 2 3 3 1 2 3 1 3 4 3 1 2 2 1 4 5 6 8 7 6 6 6 7 9 8 6 8 15 18 16 17
17 14 16 17 17 17 17 20 12 11 3 2 4 3 4 3 4 3 4 5 3 3 1 3 1 2 2 3 4 7 3 1 2 2 4 6 7 6 4 5 6 5 8 7 8 7 6 5 5 10 15 19 18 18
20 5 15 20 19 18 19 10 7 4 4 4 4 4 4 3 4 3 2 3 2 2 2 3 2 6 1 2 3 0 3 4 3 1 2 4 7 9 8 4 5 4 3 2 2 4 4 6 9 12 8 19 19 23
5 13 17 24 24 19 9 4 4 4 6 3 3 3 3 3 2 4 3 3 1 2 3 4 3 2 4 3 1 3 3 2 1 1 2 3 4 10 12 8 15 10 8 9 10 10 10 10 10 12 18 16 19 24
14 12 21 28 25 8 6 5 3 3 4 3 3 3 3 4 3 3 3 4 5 5 3 3 4 4 3 2 2 3 2 3 3 3 2 7 10 9 11 17 16 14 15 17 17 16 19 20 19 20 21 22 16 24
15 12 21 29 23 3 4 3 5 2 3 4 3 6 5 6 6 4 6 3 2 2 3 4 4 4 4 4 4 4 4 4 3 1 3 5 14 15 11 7 11 15 15 17 19 21 19 19 24 25 26 25 19 20
11 16 24 29 13 4 3 3 3 4 3 3 3 5 4 3 7 8 8 4 3 4 4 4 4 4 6 7 9 10 7 7 5 5 5 4 12 15 15 17 18 17 13 14 10 15 16 16 19 18 20 24 22 21
6 16 10 10 4 3 3 5 2 3 2 3 1 4 3 3 4 4 2 3 4 7 5 5 7 5 5 8 11 19 20 21 20 15 17 17 5 5 8 18 17 10 13 15 18 16 19 21 20 21 17 14 12 13
11 13 5 4 3 3 5 2 2 3 3 3 2 5 3 3 4 3 4 5 5 5 6 5 6 14 10 20 21 21 23 20 9 12 15 17 20 22 20 19 20 15 9 19 26 27 25 26 25 25 22 21 21 21
4 7 5 6 4 3 1 3 3 3 2 2 2 3 1 3 1 2 4 4 6 3 4 8 7 7 6 7 5 6 19 21 16 16 20 17 8 15 22 22 22 23 25 26 28 27 24 26 28 27 24 25 26 23
3 5 3 5 4 5 4 4 4 4 4 5 3 3 3 1 2 3 6 6 3 5 6 6 5 5 5 5 6 13 27 20 12 10 22 21 20 17 15 19 22 24 28 24 24 24 26 26 25 26 26 23 22 22
4 5 6 8 3 4 6 5 6 6 2 3 4 3 2 3 5 5 3 4 7 8 7 7 7 4 4 5 4 3 8 8 6 2 15 14 14 12 7 4 4 16 25 26 26 23 22 20 21 22 17 15 18 22
3 5 3 3 3 3 3 4 3 3 5 6 3 4 2 3 5 4 3 2 4 7 7 7 11 6 5 6 9 11 17 17 11 10 11 11 13 17 15 10 10 24 21 17 11 11 5 9 12 11 14 12 6 2
3 2 5 7 4 3 3 2 4 6 4 4 2 6 6 5 5 3 4 3 8 12 12 14 13 14 18 19 15 9 7 14 20 13 14 16 19 19 15 19 27 26 22 22 17 12 12 15 12 2 14 17 5 5
3 3 3 4 5 5 5 5 4 4 3 2 2 3 4 4 3 5 17 25 27 18 9 10 16 22 24 21 17 15 12 11 6 7 8 5 4 15 21 23 19 21 18 23 26 23 19 25 22 17 18 15 15 11
5 5 4 6 6 6 4 4 4 5 4 5 3 3 3 4 15 24 24 20 13 9 14 14 13 10 8 8 10 16 19 19 20 14 7 7 13 24 21 11 8 7 17 19 9 16 19 18 9 7 11 11 10 11
3 5 5 4 4 5 7 7 6 4 3 6 7 8 7 4 10 22 24 23 16 15 14 12 17 21 18 15 10 6 7 22 23 25 27 26 27 23 20 19 17 16 17 15 13 16 15 11 12 5 24 20 18 14
5 7 7 6 6 5 2 2 4 4 3 4 8 7 8 7 10 5 16 17 7 5 11 14 13 13 17 21 23 24 24 20 19 20 21 23 26 25 23 19 18 19 17 13 8 3 2 5 5 9 21 24 22 20
4 5 5 5 3 4 1 3 3 4 3 3 4 7 9 6 5 3 2 7 6 6 9 12 13 11 10 11 13 12 13 19 22 16 14 9 10 13 14 12 8 7 7 5 5 5 3 3 6 9 11 18 25 18
Wind_Direction
271 274 278 283 288 294 303 313 323 331 331 341 350 356 2 8 9 11 9 21 29 297 282 265 269 77 348 80 137 281 7 350 358 43 69 304 9 315 57 332 68 129 77 341 55 177 261 328 347 94 193 302 278 196
264 267 270 274 279 283 289 297 306 318 326 324 335 346 352 358 2 8 334 354 341 212 251 288 275 275 241 218 148 321 184 228 234 44 9 28 330 358 142 259 328 25 167 194 170 228 263 289 227 193 159 202 249 141
260 261 263 267 270 273 277 282 291 300 314 319 320 331 341 347 351 357 341 346 349 352 300 323 304 13 229 229 223 132 293 212 3 183 185 235 261 119 304 271 149 89 137 182 32 274 196 249 200 208 211 227 234 209
257 257 257 259 263 263 266 269 273 281 292 306 308 312 324 334 338 340 340 351 343 307 300 281 320 315 263 230 252 221 224 109 119 99 150 192 185 156 230 228 179 198 122 203 260 280 277 291 236 228 228 236 214 183
261 255 252 252 253 255 256 261 265 268 275 286 301 300 306 322 331 329 316 103 14 71 266 284 309 293 304 298 222 217 181 133 108 354 71 247 239 25 287 90 243 178 179 169 225 229 180 261 266 259 254 266 277 90
264 261 251 246 245 249 253 254 251 253 259 268 277 297 301 315 334 342 19 125 185 6 45 310 302 291 307 313 170 159 191 176 149 162 221 252 237 106 235 241 265 203 232 185 204 208 199 187 218 237 249 275 295 325
257 257 254 243 236 236 245 249 248 241 248 253 252 280 293 303 314 245 226 146 188 327 82 303 305 274 278 184 189 194 185 211 164 206 207 201 272 139 202 237 249 239 223 244 246 154 287 184 229 203 236 256 279 286
253 250 246 240 230 230 234 238 234 229 226 232 235 271 284 294 295 290 314 304 210 293 247 274 274 314 214 209 227 172 168 18 309 212 336 166 333 149 254 236 212 227 206 236 232 236 229 313 327 306 201 215 323 350
246 244 236 229 226 229 226 221 215 204 206 199 211 265 289 233 235 225 50 123 178 168 226 245 237 262 353 345 259 11 95 259 293 214 239 108 223 224 226 224 217 216 182 223 227 235 259 241 228 71 46 14 12 318
237 231 226 222 219 216 214 201 183 174 176 170 152 143 294 215 196 188 215 61 197 262 231 246 269 268 33 350 311 66 22 215 239 246 108 165 250 240 230 218 212 240 210 175 129 135 88 273 55 44 39 27 324 345
230 223 216 211 206 207 204 191 166 158 158 157 171 215 221 173 196 220 243 205 172 236 210 230 200 218 268 181 228 168 211 267 299 266 163 228 277 255 241 225 218 206 192 168 156 136 152 156 94 43 18 13 342 345
226 213 214 210 204 207 210 188 172 170 172 174 181 231 166 138 134 226 222 245 206 236 203 191 211 188 257 170 100 324 184 17 247 281 171 265 259 282 284 209 214 201 176 125 126 120 112 87 73 50 24 15 355 348
205 210 211 214 211 208 202 188 179 169 168 186 200 187 179 195 178 202 206 212 210 215 217 205 177 179 296 59 80 77 233 238 323 308 230 229 298 345 5 72 86 99 105 104 95 95 90 73 52 40 15 358 355 350
214 211 207 199 198 194 191 189 182 186 195 173 164 223 201 193 224 204 205 198 232 203 303 193 178 172 186 105 166 165 238 346 274 249 278 333 7 346 3 47 81 76 113 118 111 97 87 71 44 16 351 345 354 345
201 198 197 194 191 191 189 189 190 184 199 199 196 210 211 228 240 225 242 303 281 311 263 296 59 115 178 150 187 199 261 238 223 124 313 295 66 64 50 42 53 50 61 76 86 89 87 69 36 351 345 333 335 343
191 183 194 188 182 183 176 178 178 198 216 218 233 256 251 190 245 245 252 245 233 209 346 59 78 151 201 205 190 209 214 128 47 313 290 342 -0 1 23 79 87 74 74 65 62 68 68 41 358 327 324 326 331 340
177 194 188 181 176 174 173 158 176 208 221 203 229 231 261 244 236 239 338 345 132 94 159 113 238 218 296 220 227 356 108 160 205 254 325 18 360 348 337 341 3 13 13 346 336 323 305 304 308 310 312 311 319 325
177 178 176 170 166 156 178 209 213 203 214 224 214 259 187 209 258 293 287 305 346 98 133 190 110 262 223 219 236 147 160 200 211 109 328 329 349 338 336 317 305 297 293 291 284 275 273 279 282 279 291 299 311 311
176 170 165 171 161 143 164 208 228 228 207 200 219 264 287 273 237 218 254 296 303 231 136 138 196 198 223 236 137 156 169 167 205 242 266 301 313 282 306 334 310 302 307 293 285 274 272 272 268 278 284 295 291 303
182 167 171 176 173 207 164 214 191 255 235 228 210 217 220 243 257 250 259 239 236 238 181 191 197 209 199 230 192 187 206 206 166 262 280 274 266 269 274 261 274 297 302 304 300 291 275 270 270 275 280 282 282 290
159 169 174 181 199 271 258 175 188 213 209 240 242 200 217 210 226 236 248 224 193 202 225 207 204 233 239 239 237 225 217 195 206 201 222 228 262 271 270 269 274 273 262 271 258 259 261 246 261 275 281 274 272 291
160 139 134 181 205 244 254 245 228 268 234 247 229 183 231 238 234 229 213 175 213 227 199 205 215 204 221 239 248 243 249 248 242 237 248 247 245 248 246 251 262 266 262 252 254 250 260 277 285 283 277 278 274 276
141 129 117 144 238 191 259 276 239 229 210 232 194 183 215 213 215 139 217 214 232 222 218 209 218 232 226 246 246 254 252 237 240 238 241 240 243 246 237 242 253 255 262 274 272 272 270 276 276 273 274 276 274 273
133 175 162 175 199 214 219 220 228 265 283 259 276 297 244 205 213 172 233 230 238 233 232 241 242 253 254 246 229 239 250 244 229 232 234 238 243 246 243 247 251 249 254 261 265 257 260 268 272 271 270 272 273 269
131 186 190 179 191 197 210 191 200 211 224 201 201 258 263 151 199 232 241 258 223 238 238 235 228 210 220 239 245 243 250 245 247 248 249 236 236 247 248 244 248 252 254 248 251 256 260 264 267 267 265 261 256 259
193 187 195 178 181 201 199 189 193 203 186 204 238 241 187 182 194 248 248 224 228 230 239 236 230 233 260 231 226 229 257 277 350 264 262 269 248 232 238 243 243 258 263 258 249 246 248 262 271 260 260 264 262 260
228 202 181 230 189 235 230 246 206 158 187 213 216 190 173 232 227 243 259 220 214 242 237 181 171 189 204 244 270 282 281 266 264 240 262 272 275 259 246 236 241 252 267 261 254 249 222 293 299 318 314 250 198 171
245 264 212 181 209 219 266 257 199 195 223 226 217 180 187 203 229 241 211 304 317 305 298 294 270 270 267 267 266 269 344 290 261 257 273 278 259 264 276 293 264 258 242 268 264 219 236 252 244 41 298 272 207 172
225 228 181 233 205 209 216 208 219 232 211 161 209 238 247 236 248 272 273 275 285 272 257 263 273 277 269 263 247 250 274 284 199 230 244 260 285 278 276 289 280 275 287 275 270 263 241 237 231 232 229 242 215 211
229 183 224 205 198 212 222 228 238 237 223 219 220 273 270 255 254 272 274 276 266 259 269 266 262 270 254 245 254 263 262 264 264 232 234 235 255 265 279 286 246 213 278 263 249 289 288 250 234 278 271 246 229 245
210 196 223 225 233 235 237 234 242 249 251 262 260 259 260 254 282 285 281 278 279 288 280 274 269 263 257 249 237 239 254 262 263 259 256 255 263 261 261 274 273 272 275 287 265 285 264 234 202 226 263 258 244 239
187 207 222 243 261 268 295 300 248 236 243 266 272 268 273 269 266 266 261 270 280 312 302 291 278 274 280 277 269 269 267 263 267 271 279 281 276 272 273 274 267 264 261 256 238 188 78 61 35 253 240 243 236 240
199 205 206 218 249 262 52 329 358 325 299 273 265 264 263 250 244 228 105 76 60 349 332 324 322 321 328 357 352 325 293 276 269 248 236 250 270 240 222 225 216 227 222 212 199 202 243 327 334 329 331 267 243 238
Height
842 843 842 842 843 842 842 841 839 837 835 833 832 829 826 823 820 817 816 814 814 815 800 792 788 790 792 794 801 791 789 786 787 797 800 800 796 789 790 786 785 797 800 803 799 795 800 765 763 773 777 770 765 765
836 836 837 837 838 838 838 838 837 836 834 832 831 829 827 824 821 819 817 815 813 812 799 790 785 782 784 783 790 790 793 793 790 797 797 797 798 795 796 800 782 797 794 799 796 795 777 770 768 765 766 770 766 763
828 829 830 831 832 832 833 834 834 834 832 831 830 828 827 825 823 820 817 814 811 809 797 788 779 776 777 778 779 791 788 783 785 784 794 796 797 794 801 796 786 785 787 794 791 777 773 766 762 766 764 761 761 759
820 821 822 824 825 826 827 829 830 830 830 828 827 827 826 824 822 820 819 817 816 815 816 792 777 773 774 774 775 775 775 777 778 782 790 796 797 785 794 786 789 788 788 791 790 776 770 764 762 761 757 753 754 753
812 814 815 816 818 819 821 823 824 826 826 826 825 824 824 822 821 819 816 817 817 820 821 802 781 768 767 767 769 771 772 775 781 787 792 795 788 785 784 785 785 780 784 791 790 772 773 768 761 757 755 749 743 740
805 806 807 809 811 812 814 816 818 820 822 822 822 823 822 821 819 818 817 818 818 818 818 814 785 770 765 763 766 767 769 773 778 783 787 782 774 781 791 792 769 767 763 759 762 758 760 760 759 756 757 753 746 744
799 800 801 802 804 806 808 811 813 815 816 818 819 820 820 819 819 819 818 817 816 817 818 814 801 773 762 763 765 767 767 770 773 779 781 778 776 777 784 784 767 760 758 756 750 752 754 750 753 753 752 751 747 744
792 794 795 797 798 800 802 805 808 811 813 814 816 817 817 817 816 814 812 811 815 816 816 817 804 786 761 768 773 764 770 771 771 772 771 773 772 774 778 760 754 752 751 754 749 748 748 749 746 746 748 746 744 741
785 787 789 792 794 796 798 799 803 806 811 812 815 815 816 815 815 812 812 811 813 817 816 807 806 794 769 771 770 768 769 780 770 773 772 771 775 777 758 753 748 746 748 745 744 747 748 749 752 744 743 743 746 745
780 782 785 787 789 792 796 797 799 804 809 812 814 816 815 811 812 813 812 814 814 812 812 808 799 797 782 779 776 776 776 781 783 771 762 770 768 745 741 740 740 740 739 740 746 750 746 751 747 745 744 743 742 738
775 778 780 783 786 788 792 795 797 803 807 809 812 813 810 810 811 811 811 811 809 808 804 798 794 794 779 785 782 775 781 779 784 771 763 768 765 741 728 730 731 734 736 735 737 740 743 744 744 744 743 741 741 740
771 773 776 779 783 786 789 792 795 799 801 804 808 808 809 810 812 813 807 804 802 796 787 786 782 782 776 769 776 775 778 781 782 758 758 765 750 733 725 724 726 729 733 734 736 740 742 743 743 743 743 743 743 739
767 771 773 776 779 781 785 789 791 797 800 805 806 806 806 806 808 804 800 790 789 778 772 771 774 770 771 769 776 778 780 783 762 765 762 757 746 737 730 725 727 728 731 736 740 741 743 745 746 746 747 746 744 742
763 767 770 772 775 778 782 786 790 795 798 798 802 806 799 793 791 781 779 773 767 763 764 763 765 768 767 773 775 777 773 766 769 765 759 757 752 746 739 736 735 736 737 739 740 741 744 746 748 749 748 746 745 742
761 765 768 770 773 776 780 784 789 793 793 793 791 789 787 774 771 768 768 769 762 759 758 758 760 762 767 767 770 771 769 767 761 762 761 755 749 747 745 743 742 742 743 743 743 743 745 747 748 748 747 745 743 740
760 763 765 768 771 775 779 784 788 790 787 788 783 777 770 771 768 769 767 764 758 758 757 758 765 768 767 768 768 765 761 763 770 768 765 757 753 750 748 745 745 747 747 747 747 746 747 747 748 747 746 743 740 739
758 759 761 766 770 775 779 783 785 784 782 779 777 770 771 770 769 767 764 757 755 758 766 767 774 767 762 763 762 755 765 768 766 763 760 758 757 754 751 748 746 746 746 747 747 747 747 746 746 745 744 741 738 736
755 758 759 764 770 774 778 779 779 776 774 773 773 764 763 763 764 763 760 757 757 760 764 766 763 771 765 762 760 761 762 761 760 758 756 755 753 753 752 751 747 746 745 746 746 745 745 745 744 743 741 739 738 735
754 755 757 762 766 771 775 776 774 770 768 766 765 762 761 759 757 757 757 755 755 755 757 761 764 766 760 755 756 758 759 758 759 756 751 750 749 751 750 748 746 744 744 744 743 742 741 740 740 738 737 736 735 732
752 754 757 762 766 767 770 770 769 768 766 761 756 757 758 756 753 752 753 754 755 758 757 757 758 756 754 750 748 751 751 750 752 754 754 751 748 747 745 742 743 742 742 739 738 737 736 736 735 733 732 730 729 728
751 752 759 765 768 768 765 761 763 761 757 756 747 748 750 748 749 748 748 746 753 753 751 746 744 742 741 741 742 743 743 744 746 746 747 747 743 742 741 739 738 737 736 735 734 731 731 730 728 727 725 724 723 721
749 753 759 765 765 764 762 756 755 752 751 745 743 743 745 744 743 740 738 743 741 735 735 734 734 736 737 737 735 733 733 732 733 735 735 736 737 737 736 734 733 731 728 727 726 725 723 722 720 719 719 717 717 716
749 753 758 762 761 760 758 753 753 746 745 739 736 737 737 736 733 731 737 732 728 723 724 726 726 726 727 726 726 724 724 724 725 726 726 726 725 724 724 723 723 724 723 721 719 716 715 714 714 713 712 711 710 709
749 750 752 755 757 753 753 752 749 745 738 737 735 730 728 729 726 731 729 724 717 718 719 717 717 719 720 719 720 718 716 715 715 715 715 715 715 714 713 713 713 713 713 712 709 708 708 707 707 705 704 704 702 702
750 749 748 750 750 751 746 743 741 740 736 736 735 735 729 725 729 728 721 712 713 712 712 710 711 712 714 711 710 708 705 706 707 706 703 703 703 704 704 703 703 702 702 703 702 701 700 699 699 698 697 696 695 694
743 741 743 739 741 741 738 734 736 736 733 732 731 727 724 727 726 721 713 704 702 703 703 703 703 705 705 703 704 703 701 699 697 699 697 696 696 697 695 696 697 695 693 694 692 692 691 691 691 690 690 688 688 688
739 733 735 735 733 734 730 727 724 727 728 727 722 723 721 719 716 709 698 694 697 695 694 694 695 697 697 695 694 693 693 693 691 690 691 691 690 689 689 688 688 684 684 686 685 685 686 685 685 684 682 683 683 684
735 730 727 729 730 729 725 720 717 718 718 715 712 713 712 711 707 698 693 691 692 693 691 691 690 690 690 689 689 689 687 688 688 686 686 684 682 681 678 678 680 679 680 679 678 682 681 681 681 680 685 683 681 682
729 726 726 725 724 724 722 718 714 709 705 705 704 705 704 698 693 691 689 687 686 686 686 686 684 684 682 681 682 682 682 682 683 685 684 683 679 676 674 673 673 674 674 673 672 673 675 675 675 675 676 677 678 678
721 719 719 715 715 713 710 705 702 698 697 698 697 695 693 689 686 685 683 681 681 680 679 678 678 677 677 677 677 676 675 675 675 675 677 675 672 669 669 668 669 668 669 668 667 667 666 667 669 670 670 672 673 674
709 710 709 706 704 701 698 695 693 692 692 691 689 689 687 683 678 678 677 675 674 673 673 672 671 671 669 668 667 667 667 666 665 665 664 664 664 664 663 663 664 664 663 664 662 663 661 661 663 665 665 666 668 669
701 701 702 702 699 694 692 692 690 689 688 686 683 680 677 676 673 670 668 668 668 668 667 666 664 662 662 660 659 658 657 657 658 658 658 657 657 657 657 656 656 656 657 657 657 658 657 658 659 661 661 660 661 662
691 692 693 696 696 692 695 695 694 693 689 684 678 673 671 672 671 665 666 665 665 666 665 663 660 658 656 655 653 651 649 647 647 649 649 649 649 650 650 650 651 652 652 652 653 653 654 654 655 656 655 655 655 657